Miscellaneous Local Product
Issued by NWS Hastings, NE

Home | Current Version | Previous Version | Text Only | Print | Product List | Glossary Off
Versions: 1 2 3 4 5 6 7 8 9 10 11 12 13 14 15 16 17 18 19 20 21 22 23 24 25 26 27 28 29 30 31 32 33 34 35 36 37 38 39 40 41 42 43 44 45 46 47 48 49 50

000
AXUS43 KGID 031302
MISGRI

GID CWA HOURLY WEATHER ROUNDUP
NATIONAL WEATHER SERVICE HASTINGS NE
800 AM CDT SUN MAY 03 2015

NOTE: "FAIR" INDICATES FEW OR NO CLOUDS BELOW 12,000 FEET WITH NO
SIGNIFICANT WEATHER AND/OR OBSTRUCTIONS TO VISIBILITY.

...SOUTH CENTRAL NEBRASKA...

CITY           SKY/WX    TMP DP  RH WIND       PRES   REMARKS
GRAND ISLAND   MOSUNNY   59  53  80 SE6       29.74S
HASTINGS       SUNNY     61  51  70 CALM      29.74R
KEARNEY        MOSUNNY   59  46  63 SW3       29.75R
ORD            MOSUNNY   54  49  83 CALM      29.71R
YORK           MOSUNNY   59  54  82 S12       29.74S
AURORA         MOSUNNY   60  55  84 S8        29.74S
LEXINGTON      MOSUNNY   55  49  81 CALM      29.76R
HOLDREGE       SUNNY     65  45  49 W8        29.76R
HEBRON         PTSUNNY   58  53  82 CALM      29.76S

...NEBRASKA PANHANDLE...

CITY           SKY/WX    TMP DP  RH WIND       PRES   REMARKS
CHADRON        MOSUNNY   47  39  74 N5        29.88R
ALLIANCE       PTSUNNY   48  42  80 W8        29.82R
SCOTTSBLUFF    SUNNY     50  42  74 N6        29.86R
SIDNEY         MOSUNNY   52  42  69 NW8       29.87R

...WESTERN AND NORTH CENTRAL NEBRASKA...

CITY           SKY/WX    TMP DP  RH WIND       PRES   REMARKS
VALENTINE      PTSUNNY   52  42  69 NW9       29.76R
AINSWORTH      MOSUNNY   55  44  66 W8        29.74R
ONEILL         MOSUNNY   57  55  94 S7        29.71F
BROKEN BOW     PTSUNNY   65  44  46 VRB5      29.74R
IMPERIAL       SUNNY     56  44  64 W12       29.81R
NORTH PLATTE   SUNNY     52  48  86 NW6       29.78R
MCCOOK         SUNNY     55  46  71 S9        29.81R

...EASTERN NEBRASKA...

CITY           SKY/WX    TMP DP  RH WIND       PRES   REMARKS
NORFOLK        PTSUNNY   62  54  74 S16G24    29.71S
SO SIOUX CITY  MOSUNNY   60  52  74 E8        29.73R
TEKAMAH        MOSUNNY   64  58  80 S12       29.73R
COLUMBUS       MOSUNNY   61  52  72 S10       29.75S
ALBION         MOSUNNY   58  53  83 S9        29.72S
OMAHA EPPLEY   PTSUNNY   63  56  78 S16       29.75R
OFFUTT AFB     MOSUNNY   63  56  78 SE13      29.75S
MILLARD        MOSUNNY   65  56  74 S10       29.75R
LINCOLN        SUNNY     64  55  72 S16       29.75S
NEBRASKA CITY  SUNNY     63  53  70 S18       29.78F
BEATRICE       MOSUNNY   64  56  75 S10       29.77R
FALLS CITY     MOSUNNY   65  56  72 S12G21    29.80S

...NORTHERN KANSAS...

CITY           SKY/WX    TMP DP  RH WIND       PRES   REMARKS
GOODLAND       SUNNY     56  45  66 W10       29.86R
HILL CITY      MOSUNNY   58  50  75 CALM      29.81R
NORTON         SUNNY     59  45  58 SW8       29.80R
PHILLIPSBURG   SUNNY     66  52  59 W8        29.79R
SMITH CENTER   SUNNY     61  50  67 W5        29.78S
BELOIT         SUNNY     61  52  72 S6        29.76R
HAYS           MOSUNNY   63  48  59 W3        29.81R
RUSSELL        PTSUNNY   61  52  72 SW8       29.79R
CONCORDIA      SUNNY     65  54  67 SW15G23   29.77R
SALINA         PTSUNNY   65  56  72 S16       29.80R
TOPEKA         PTSUNNY   64  56  75 S14       29.84S



USA.gov is the U.S. government's official web portal to all federal, state and local government web resources and services.